Regional Weather Roundup
Issued by NWS Pendleton, OR

Home | Current Version | Previous Version | Text Only | Print | Product List | Glossary On
Versions: 1 2 3 4 5 6 7 8 9 10 11 12 13 14 15 16 17 18 19 20 21 22 23 24 25 26 27 28 29 30 31 32 33 34 35 36 37 38 39 40 41 42 43 44 45 46 47 48 49 50
569
ASUS46 KPDT 241225
RWRPDT
PENDLETON REGIONAL WEATHER ROUNDUP
NATIONAL WEATHER SERVICE PENDLETON OREGON
500 AM PDT FRI MAR 24 2017

NOTE: FAIR INDICATES FEW OR NO CLOUDS BELOW 12,000 FEET WITH NO
SIGNIFICANT WEATHER AND/OR OBSTRUCTIONS TO VISIBILITY.

# INDICATES UNOFFICIAL STATION AND DATA

WAZ520-241310-
EAST SLOPES OF WASHINGTON CASCADES

CITY            SKY/WX      TMP DP  RH  WIND    PRES   REMARKS
#CLE ELUM HS    N/A         38  36  92  CALM    29.82F
#CLE ELUM LAKE  N/A         N/A N/A N/A S21G28  29.84F
#GLENWOOD       N/A         37  36  96  CALM    29.87F
#NELSON 3SW     N/A         32  31  96  CALM    30.09F
#NILE           N/A         36  35  96  CALM    29.15F
#TEANAWAY 4NE   N/A         36  36  100 CALM    N/A
#TROUT LAKE 1NE N/A         35  34  96  CALM    29.89F
#TROUT LAKE 1E  N/A         34  33  96  CALM    29.88F
$$

WAZ521-241310-
SIMCOE HIGHLANDS

CITY            SKY/WX      TMP DP  RH  WIND    PRES   REMARKS
#BICKLETON HS   N/A         39  39  100 SE8     29.89F
#CENTERVILLE 1SWN/A         41  37  86  CALM    29.83F
#GOLDENDALE 1NE N/A         43  38  82  N2      N/A
#GOLDENDALE 4W  N/A         41  38  89  CALM    29.87F
#GOODNOE HILLS  N/A         44  39  82  NE3     29.77F
#LYLE 6NE       N/A         40  39  96  NE2     29.84F
#PITT 4SE       N/A         38  37  96  E5      29.89F
$$

WAZ026-241310-
KITTITAS VALLEY

CITY            SKY/WX      TMP DP  RH  WIND    PRES   REMARKS
ELLENSBURG AP   LGT RAIN    41  37  86  CALM    29.86F
6HR MIN TEMP:   41; 6HR MAX TEMP:   47; 6HR PCP:  0.06;

#ELLENSBURG CWU N/A         40  37  89  CALM    29.83S
#ELLENSBURG 3NE N/A         39  37  92  CALM    27.96F
#ELLENSBURG 1E  N/A         39  N/A N/A CALM    N/A
#ELLENSBURG 13S N/A         42  37  82  E3      N/A
#KITTITAS 4N    N/A         39  34  82  E3      29.88F
#KITTITAS 3S    N/A         39  37  92  CALM    29.88F
#THORP 6N       N/A         36  35  96  SE3     29.89F
$$

WAZ027-241310-
YAKIMA VALLEY

CITY            SKY/WX      TMP DP  RH  WIND    PRES   REMARKS
SUNNYSIDE AP    LGT RAIN    43  41  93  CALM    29.89F
YAKIMA AIRPORT  LGT RAIN    45  41  86  SW6     29.87F
6HR MIN TEMP:   44; 6HR MAX TEMP:   50; 6HR PCP:  0.02;

YAKIMA-VAGABOND LGT RAIN    41  39  93  CALM    29.85F
#DONALD 2NE     N/A         43  29  57  SW1     28.72F
#GRANDVIEW      N/A         43  39  86  CALM    29.91F
#MABTON         N/A         44  42  93  CALM    29.88F
#MOXEE 2E       N/A         42   0  17  CALM    29.85F
#NACHES 2SW     N/A         41  39  93  CALM    29.87F
#TERRACE HTS    N/A         42  40  93  CALM    29.85F
#TOPPENISH      N/A         44  41  89  CALM    29.81F
#WEST VALLEY    N/A         43  40  89  CALM    29.87F
#W YAKIMA       N/A         42  39  89  CALM    29.89F
#WHITE SWAN 5E  N/A         43  41  93  CALM    29.89F
#WILEY CITY 3W  N/A         40  35  82  CALM    29.84F
$$

WAZ028-241310-
LOWER COLUMBIA BASIN...WASHINGTON

CITY            SKY/WX      TMP DP  RH  WIND    PRES   REMARKS
PASCO           LGT RAIN    44  42  93  CALM    29.91F
6HR MIN TEMP:   43; 6HR MAX TEMP:   47; 6HR PCP:  0.05;

PROSSER AWOS    N/A         45  41  86  CALM    29.92F
RICHLAND AWOS   LGT SNOW    46  44  93  CALM    29.90F
#BENTON CITY    N/A         43  39  86  CALM    29.82F
#CONNELL 5N     N/A         40  38  92  CALM    29.91S
#CONNELL 5NW    N/A         41  38  89  CALM    29.86S
#ELTOPIA 6NW    N/A         42  39  89  CALM    28.87S
#KAHLOTUS       N/A         43  36  76  CALM    29.91S
#KENNEWICK 3S   N/A         44  39  82  CALM    29.92S
#PATERSON       N/A         44  42  93  SE1     29.88F
#SAGEMOOR 2W    N/A         42  38  86  CALM    29.79R
#TOUCHET 2S     N/A         44  40  86  E1      29.90R
#WEST PASCO     N/A         45  39  79  CALM    29.89F
$$

WAZ029-241310-
FOOTHILLS OF THE BLUES...WASHINGTON

CITY            SKY/WX      TMP DP  RH  WIND    PRES   REMARKS
WALLA WALLA AP  CLOUDY      46  38  73  NE6     29.90F
6HR MIN TEMP:   45; 6HR MAX TEMP:   60; 6HR PCP:  TRACE;

#CLYDE 6NW      N/A         42  37  82  W1      29.91S
#DAYTON SCHOOL  N/A         46  30  53  CALM    29.93S
#LOWDEN 2SE     N/A         44  39  82  E1      29.88S
#PLEASANT VIEW 1N/A         42  36  79  SW1     29.95F
#PRESCOTT       N/A         43  39  86  CALM    29.91S
#WHITMAN COLLEGEN/A         47  38  71  CALM    29.95F
#WAITSBURG 5S   N/A         44  38  79  CALM    30.01S
#WAITSBURG 8N   N/A         43  N/A N/A S2      29.85S
#WALLA WALLA 5E N/A         46  40  79  NE2     N/A
#WHITMAN MISSIONN/A         46  40  79  CALM    29.92F
$$

WAZ030-241310-
BLUE MOUNTAINS...WASHINGTON

CITY            SKY/WX      TMP DP  RH  WIND    PRES   REMARKS
#DIXIE 5SE      N/A         47  31  53  S16G26  29.80F WCI 41
$$

ORZ009-041-WAZ024-241310-
COLUMBIA RIVER GORGE

CITY            SKY/WX      TMP DP  RH  WIND    PRES   REMARKS
HOOD RIVER AP   RAIN        41  41  100 CALM    29.88F
THE DALLES AP   LGT RAIN    46  45  96  CALM    29.88F FOG
6HR MIN TEMP:   46; 6HR MAX TEMP:   49; 6HR PCP:  0.16;

#ARLINGTON AIRPON/A         43  41  93  CALM    29.90F
#ARLINGTON HS   N/A         46  42  86  E14     29.81S WCI 40
#CELILO DOT     N/A         46  42  86  S10     N/A
#LYLE           N/A         45  44  96  NW1     29.89F
#MOSIER 1S      N/A         43  37  79  CALM    29.85F
#MURDOCK        N/A         45  44  96  NW1     29.84F
#RUFUS DOT      N/A         47  47  100 CALM    N/A
#SMITHVILLE     N/A         46  44  93  N2      29.83F

$$

ORZ510-241310-
NORTH CENTRAL OREGON

CITY            SKY/WX      TMP DP  RH  WIND    PRES   REMARKS
#ANTELOPE       N/A         42  39  89  SW3     29.74F
#CHENOWITH 1W   N/A         41  40  96  E7      N/A
#DUFUR          N/A         42  41  96  CALM    29.84F
#DUFUR 9E       N/A         41  40  96  SE2     29.91F
#GRASS VALLEY 1SN/A         43  42  96  SE2     29.99F
#KENT DOT       N/A         42  37  82  N6      N/A
#MAUPIN SCHOOL  N/A         44  40  86  CALM    29.90F
#MORO SCHOOL    N/A         42  42  100 CALM    29.93F
#SHANIKO 4NW    N/A         39  37  92  S18     29.82F WCI 30
#TYGH VALLEY 2NEN/A         43  41  93  CALM    29.86F
#WAPANITIA AIRPON/A         41  39  93  CALM    29.88F
#WASCO 5NE      N/A         42  39  89  CALM    29.88S
$$

ORZ511-241310-
CENTRAL OREGON

CITY            SKY/WX      TMP DP  RH  WIND    PRES   REMARKS
BEND AIRPORT    CLOUDY      43  34  70  CALM    29.84F
MADRAS AIRPORT  LGT DRIZZLE 43  39  86  S18G25  29.84F WCI 35
PRINEVILLE AP   CLOUDY      43  37  79  SE12    29.84F WCI 37
REDMOND AIRPORT CLOUDY      44  32  62  S9      29.84F
6HR MIN TEMP:   44; 6HR MAX TEMP:   46;

#ASHWOOD SCHOOL N/A         43  38  82  S5      29.82F
#BEND 1SW       N/A         39  36  89  SW1     N/A
#BEND-AWBREY    N/A         40  37  89  S8      29.83F
#BEND-KIM LN    N/A         42  36  79  SE10    29.76F
#CULVER         N/A         45  36  70  SE10G25 29.76F
#CULVER 8W      N/A         44  38  79  CALM    29.83F
#LAKE BILLY CHINN/A         44  N/A N/A W2      29.92F
#POWELL BUTTE   N/A         43  34  70  S21G28  29.80F WCI 34
#PRINEVILLE     N/A         42  37  82  E7      29.96F
#PRINEVILLE 3N  N/A         43  38  82  E14     29.84F WCI 36
#WARM SPRINGS   N/A         44  42  93  CALM    29.81F

$$


ORZ509-241310-
EAST SLOPES OF OREGON CASCADES

CITY            SKY/WX      TMP DP  RH  WIND    PRES   REMARKS
SISTERS AWOS    N/A         39  37  92  CALM    29.80F
#BLUE BOX PASS  N/A         33  N/A N/A CALM    N/A
#CAMP SHERMAN   N/A         38  36  92  CALM    29.87F
#LA PINE 4SW    N/A         38  32  79  E5      29.88
#LA PINE 4NW    N/A         38  32  79  S2      29.92F
#LAVA BUTTE DOT N/A         36  34  92  SE3     N/A
#SISTERS 3N     N/A         39  35  85  N2      29.85F
#SUNRIVER       N/A         38  35  89  SW3     29.87F
#TUMALO 3W      N/A         40  36  85  SE6     29.72F
#WANOGA BUTTE D N/A         30  30  100 W13     N/A    WCI 20

$$

ORZ044-241310-
LOWER COLUMBIA BASIN...OREGON

CITY            SKY/WX      TMP DP  RH  WIND    PRES   REMARKS
HERMISTON       LGT RAIN    45  44  96  E6      29.89F
6HR MIN TEMP:   45; 6HR MAX TEMP:   48; 6HR PCP:  0.05;

#BOARDMAN SCHOOLN/A         46  43  89  N1      29.89F
#BOARDMAN 8SW   N/A         46  42  86  CALM    29.88F
#ECHO 8SW       N/A         45  44  96  CALM    29.90F
#IONE SCHOOL    N/A         43  28  55  CALM    29.90F
#UMATILLA       N/A         46  41  83  CALM    29.83F
$$

ORZ507-241310-
NORTHERN FOOTHILLS OF THE BLUES

CITY            SKY/WX      TMP DP  RH  WIND    PRES   REMARKS
PENDLETON AIRPT LGT RAIN    45  42  89  S5      29.88F
6HR MIN TEMP:   44; 6HR MAX TEMP:   52; 6HR PCP:  0.08;

#ADAMS 3WNW     N/A         45  40  82  CALM    29.90F
#ATHENA         N/A         48  38  68  SW2     29.93F
#CAYUSE         N/A         48  39  71  CALM    29.90F
#HELIX SCHOOL   N/A         44  40  86  N5      29.90F
#HELIX 3N       N/A         44  40  86  S8      29.86F
#HOLDMAN 5SE    N/A         44  42  93  CALM    29.88F
#HOLDMAN 6E     N/A         44  41  89  S6      29.71F
#M-F FERNDALE   N/A         45  37  73  CALM    29.88F
#M-F GROVE ELEM N/A         45  35  68  CALM    29.87F
#M-FREEWATER 5SEN/A         53  36  52  S2      29.89F
#PENDLETON DNTN N/A         45  37  73  CALM    29.89S
#PDT AQUATIC CTRN/A         45  39  79  CALM    29.78F
#PDT SUNRIDGE   N/A         44  41  89  CALM    29.91S
#PILOT ROCK 1S  N/A         46  36  68  CALM    29.89F
#PILOT ROCK     N/A         44  39  82  E2      29.89F
#TUTUILLA       N/A         45  40  82  CALM    29.91F
#UMAPINE 2E     N/A         46  40  79  E1      29.88S
#WESTON SCHOOL  N/A         49  35  58  W8      29.90F

$$

ORZ508-241310-
SOUTHERN FOOTHILLS OF THE BLUES

CITY            SKY/WX      TMP DP  RH  WIND    PRES   REMARKS
LEXINGTON       LGT RAIN    48  43  83  S7      29.89F
#AJAX           N/A         43  36  76  E1      30.01S
#CONDON SCHOOL  N/A         43  40  89  S7      29.81F
#CONDON 5W      N/A         40  37  89  S15     29.81F WCI 32
#FOSSIL SCHOOL  N/A         44  41  89  CALM    29.81F
#HEPPNER EOC    N/A         46  40  79  SE7     29.80F
#HEPPNER 4NE    N/A         43  38  82  S7      29.87F
#LEXINGTON 2SE  N/A         49  42  77  S3      29.83F
#OLEX 4N        N/A         43  41  93  E3      29.86F
#RUGGS 5NE      N/A         42  40  93  N6      30.01R
#RUGGS 2SW      N/A         43  38  82  S16G28  29.90F WCI 35

$$

ORZ502-503-241310-
BLUE MOUNTAINS

CITY            SKY/WX      TMP DP  RH  WIND    PRES   REMARKS
MEACHAM         LGT RAIN    38  30  73  CALM    29.90S
6HR MIN TEMP:   38; 6HR MAX TEMP:   42; 6HR PCP:  TRACE;

#GREENHORN 9SW  N/A         32  N/A N/A CALM    26.15S
#HARDMAN 10S    N/A         35  34  96  SE7     30.02F
#HEPPNER 15SE   N/A         36  34  92  E3      29.89F
#LONG CREEK HS  N/A         40  39  96  CALM    N/A
#PIKES PEAK     N/A         44  30  58  W26G35  27.99S WCI 35
#TOLLGATE       N/A         37  29  72  SW5     29.76F
#TROY SCHOOL    N/A         38  33  82  CALM    29.82F
#UKIAH          N/A         39  36  89  CALM    29.87F
#WESTON 4E      N/A         44  33  65  S12     29.88F WCI 38
$$

ORZ505-241310-
JOHN DAY BASIN

CITY            SKY/WX      TMP DP  RH  WIND    PRES   REMARKS
JOHN DAY        LGT RAIN    42  37  82  S10     29.93F
#JOHN DAY KJDY  N/A         44  N/A N/A CALM    29.51R
#ANTELOPE 9ESE  N/A         45  43  93  CALM    N/A
#DAYVILLE SCHOOLN/A         43  37  79  S6      29.90F
#MITCHELL       N/A         44  39  82  CALM    30.03F
#MITCHELL 8NW   N/A         40  35  82  SW7G24  29.68F
#MONUMENT HS    N/A         44  40  86  CALM    29.88F
#MT. VERNON 5SE N/A         37  34  89  NE1     29.88S
#SPRAY SCHOOL   N/A         45  N/A N/A CALM    N/A
#WINLOCK        N/A         42  39  89  S2      29.86F
$$

ORZ506-241310-
OCHOCO AND JOHN DAY HIGHLANDS

CITY            SKY/WX      TMP DP  RH  WIND    PRES   REMARKS
#HORSE RIDGE DO N/A         38  33  82  S18     N/A    WCI 28
#PINE MTN OBS   N/A         30  29  96  SE18G26 N/A    WCI 18
#PRAIRIE CITY   N/A         43  34  70  CALM    30.09F
#SENECA         N/A         36  N/A N/A N5      N/A
#SENECA 9NW     N/A         35  33  92  CALM    29.96F
$$

ORZ049-241310-
GRANDE RONDE VALLEY

CITY            SKY/WX      TMP DP  RH  WIND    PRES   REMARKS
LA GRANDE       CLOUDY      48  28  46  S6      29.90F
#COVE           N/A         51  32  48  SE9     29.91F
#COVE SCHOOL    N/A         50  29  44  S9      29.91F
#COVE 6NW       N/A         48  33  56  S5      29.93F
#ELGIN 3N       N/A         35  29  78  CALM    29.90F
#ELGIN 1E       N/A         37  32  82  CALM    N/A
#IMBLER SCHOOL  N/A         37  31  79  CALM    29.88F
#ISLAND CITY 4N N/A         47  46  96  CALM    29.82F
#UNION 1S       N/A         49  30  48  SE14G24 29.92F WCI 44
$$

ORZ050-241310-
WALLOWA COUNTY

CITY            SKY/WX      TMP DP  RH  WIND    PRES   REMARKS
JOSEPH AIRPORT  PTCLDY      36  28  72  CALM    29.90F
#IMNAHA SCHOOL  N/A         39  35  85  CALM    29.94F
#IMNAHA 10S     N/A         50  27  41  SW10    29.91F
#JOSEPH 3N      N/A         33  26  75  CALM    29.93F
#JOSEPH 3W      N/A         38  29  70  CALM    29.74F
#LOSTINE        N/A         34  31  89  CALM    29.77F
#LOSTINE 3SE    N/A         34  31  89  CALM    29.95F
#MT HOWARD 8000 N/A         27  21  78  S18G38  29.80F WCI 14
#PROMISE 1S     N/A         35  29  78  CALM    30.02F
#WALLOWA SCHOOL N/A         33  31  92  CALM    29.91F



$$



USA.gov is the U.S. government's official web portal to all federal, state and local government web resources and services.